TimeCDT,TemperatureF,Dew PointF,Humidity,Sea Level PressureIn,VisibilityMPH,Wind Direction,Wind SpeedMPH,Gust SpeedMPH,PrecipitationIn,Events,Conditions,WindDirDegrees,DateUTC
12:15 AM,75.2,71.6,89,29.91,5.0,Calm,Calm,-,N/A,,Clear,0,2013-09-02 05:15:00
12:35 AM,75.2,71.6,89,29.91,5.0,Calm,Calm,-,N/A,,Clear,0,2013-09-02 05:35:00
12:55 AM,75.2,71.6,89,29.91,4.0,Calm,Calm,-,N/A,,Clear,0,2013-09-02 05:55:00
1:15 AM,75.2,71.6,89,29.91,5.0,Calm,Calm,-,N/A,,Clear,0,2013-09-02 06:15:00
1:35 AM,75.2,71.6,89,29.90,5.0,Calm,Calm,-,N/A,,Partly Cloudy,0,2013-09-02 06:35:00
1:55 AM,73.4,71.6,94,29.90,4.0,Calm,Calm,-,N/A,,Clear,0,2013-09-02 06:55:00
2:15 AM,73.4,71.6,94,29.90,4.0,Calm,Calm,-,N/A,,Scattered Clouds,0,2013-09-02 07:15:00
2:35 AM,73.4,71.6,94,29.88,3.0,Calm,Calm,-,N/A,,Partly Cloudy,0,2013-09-02 07:35:00
2:55 AM,73.4,71.6,94,29.89,3.0,Calm,Calm,-,N/A,,Clear,0,2013-09-02 07:55:00
3:15 AM,73.4,71.6,94,29.89,4.0,Calm,Calm,-,N/A,,Scattered Clouds,0,2013-09-02 08:15:00
3:35 AM,73.4,71.6,94,29.89,4.0,Calm,Calm,-,N/A,,Overcast,0,2013-09-02 08:35:00
3:55 AM,73.4,71.6,94,29.89,5.0,NW,3.5,-,N/A,,Mostly Cloudy,320,2013-09-02 08:55:00
4:15 AM,73.4,71.6,94,29.89,8.0,SSE,3.5,-,N/A,,Mostly Cloudy,160,2013-09-02 09:15:00
4:35 AM,73.4,71.6,94,29.91,7.0,NW,8.1,-,N/A,Thunderstorm,Mostly Cloudy,320,2013-09-02 09:35:00
4:55 AM,73.4,69.8,88,29.92,7.0,NE,18.4,-,0.01,Thunderstorm,Overcast,40,2013-09-02 09:55:00
5:15 AM,71.6,66.2,83,29.92,5.0,East,15.0,-,0.20,Thunderstorm,Thunderstorm,80,2013-09-02 10:15:00
5:35 AM,69.8,66.2,88,29.95,5.0,NNE,6.9,-,0.49,Thunderstorm,Thunderstorm,20,2013-09-02 10:35:00
5:55 AM,69.8,66.2,88,29.97,2.5,SSW,6.9,-,1.47,Thunderstorm,Thunderstorm,210,2013-09-02 10:55:00
6:15 AM,69.8,66.2,88,29.98,10.0,NE,4.6,-,0.08,Thunderstorm,Mostly Cloudy,50,2013-09-02 11:15:00
6:35 AM,69.8,66.2,88,29.99,10.0,WNW,3.5,-,0.11,Thunderstorm,Thunderstorm,300,2013-09-02 11:35:00
6:55 AM,69.8,66.2,88,29.99,9.0,Calm,Calm,-,0.13,,Overcast,0,2013-09-02 11:55:00
7:15 AM,69.8,66.2,88,30.00,7.0,Calm,Calm,-,0.07,,Overcast,0,2013-09-02 12:15:00
7:35 AM,69.8,66.2,88,30.00,10.0,SSW,4.6,-,0.14,,Overcast,210,2013-09-02 12:35:00
7:55 AM,69.8,66.2,88,30.00,9.0,SSW,5.8,-,0.23,,Overcast,210,2013-09-02 12:55:00
8:15 AM,69.8,66.2,88,30.01,10.0,WSW,6.9,-,0.06,,Overcast,240,2013-09-02 13:15:00
8:35 AM,69.8,66.2,88,30.01,10.0,SW,4.6,-,0.09,,Mostly Cloudy,230,2013-09-02 13:35:00
8:55 AM,69.8,66.2,88,30.02,10.0,West,3.5,-,0.09,,Scattered Clouds,270,2013-09-02 13:55:00
9:15 AM,69.8,66.2,88,30.03,10.0,West,3.5,-,N/A,,Mostly Cloudy,260,2013-09-02 14:15:00
9:35 AM,69.8,66.2,88,30.03,10.0,SW,5.8,-,N/A,,Mostly Cloudy,230,2013-09-02 14:35:00
9:55 AM,69.8,66.2,88,30.02,10.0,SW,6.9,-,N/A,,Partly Cloudy,230,2013-09-02 14:55:00
10:15 AM,69.8,66.2,88,30.02,10.0,SW,5.8,-,N/A,,Clear,230,2013-09-02 15:15:00
10:35 AM,69.8,66.2,88,30.02,10.0,SW,5.8,-,N/A,,Partly Cloudy,220,2013-09-02 15:35:00
10:55 AM,71.6,66.2,83,30.01,10.0,SSW,3.5,-,N/A,,Scattered Clouds,200,2013-09-02 15:55:00
11:15 AM,71.6,66.2,83,30.01,10.0,Calm,Calm,-,N/A,,Partly Cloudy,0,2013-09-02 16:15:00
11:35 AM,71.6,66.2,83,29.99,10.0,Calm,Calm,-,N/A,,Clear,0,2013-09-02 16:35:00
11:55 AM,73.4,68.0,83,29.98,10.0,Calm,Calm,-,N/A,,Clear,0,2013-09-02 16:55:00
12:15 PM,77.0,66.2,69,29.97,10.0,Calm,Calm,-,N/A,,Clear,0,2013-09-02 17:15:00
12:35 PM,78.8,68.0,69,29.96,10.0,Calm,Calm,-,N/A,,Clear,0,2013-09-02 17:35:00
12:55 PM,78.8,68.0,69,29.95,10.0,Calm,Calm,-,N/A,,Clear,0,2013-09-02 17:55:00
1:15 PM,80.6,68.0,65,29.95,10.0,Calm,Calm,-,N/A,,Clear,0,2013-09-02 18:15:00
1:35 PM,80.6,69.8,70,29.95,10.0,Calm,Calm,-,N/A,,Clear,0,2013-09-02 18:35:00
1:55 PM,82.4,69.8,66,29.94,10.0,WSW,3.5,-,N/A,,Clear,240,2013-09-02 18:55:00
2:15 PM,84.2,69.8,62,29.93,10.0,SSW,3.5,-,N/A,,Clear,200,2013-09-02 19:15:00
2:35 PM,84.2,71.6,66,29.92,10.0,WSW,6.9,-,N/A,,Clear,240,2013-09-02 19:35:00
2:55 PM,84.2,71.6,66,29.91,10.0,WSW,6.9,-,N/A,,Clear,250,2013-09-02 19:55:00
3:15 PM,84.2,71.6,66,29.90,10.0,WSW,8.1,-,N/A,,Clear,240,2013-09-02 20:15:00
3:35 PM,84.2,69.8,62,29.89,10.0,WSW,6.9,-,N/A,,Clear,250,2013-09-02 20:35:00
3:55 PM,84.2,69.8,62,29.89,10.0,WSW,3.5,-,N/A,,Clear,250,2013-09-02 20:55:00
4:15 PM,84.2,69.8,62,29.88,10.0,SW,4.6,-,N/A,,Clear,220,2013-09-02 21:15:00
4:35 PM,84.2,71.6,66,29.88,10.0,SW,8.1,-,N/A,,Clear,220,2013-09-02 21:35:00
4:55 PM,84.2,71.6,66,29.88,10.0,SSW,5.8,-,N/A,,Clear,200,2013-09-02 21:55:00
5:15 PM,82.4,71.6,70,29.90,10.0,SW,5.8,-,N/A,,Scattered Clouds,230,2013-09-02 22:15:00
5:35 PM,82.4,71.6,70,29.90,10.0,SW,3.5,-,N/A,,Mostly Cloudy,220,2013-09-02 22:35:00
5:55 PM,80.6,71.6,74,29.90,10.0,SSW,4.6,-,N/A,,Scattered Clouds,210,2013-09-02 22:55:00
6:15 PM,80.6,71.6,74,29.90,10.0,Calm,Calm,-,N/A,,Clear,0,2013-09-02 23:15:00
6:35 PM,80.6,71.6,74,29.90,10.0,SW,3.5,-,N/A,,Partly Cloudy,220,2013-09-02 23:35:00
6:55 PM,78.8,71.6,78,29.89,10.0,SSW,4.6,-,N/A,,Clear,210,2013-09-02 23:55:00
7:15 PM,77.0,71.6,83,29.90,10.0,SW,3.5,-,N/A,,Clear,220,2013-09-03 00:15:00
7:35 PM,77.0,71.6,83,29.90,10.0,SSW,4.6,-,N/A,,Clear,210,2013-09-03 00:35:00
7:55 PM,75.2,71.6,89,29.91,10.0,Calm,Calm,-,N/A,,Clear,0,2013-09-03 00:55:00
8:15 PM,75.2,71.6,89,29.91,10.0,Calm,Calm,-,N/A,,Clear,0,2013-09-03 01:15:00
8:35 PM,75.2,71.6,89,29.93,10.0,Calm,Calm,-,N/A,,Clear,0,2013-09-03 01:35:00
8:55 PM,73.4,71.6,94,29.93,10.0,Calm,Calm,-,N/A,,Clear,0,2013-09-03 01:55:00
9:15 PM,73.4,71.6,94,29.93,5.0,Calm,Calm,-,N/A,,Clear,0,2013-09-03 02:15:00
9:35 PM,73.4,71.6,94,29.93,10.0,WSW,3.5,-,N/A,,Clear,250,2013-09-03 02:35:00
9:55 PM,73.4,69.8,88,29.93,9.0,Calm,Calm,-,N/A,,Clear,0,2013-09-03 02:55:00
10:15 PM,73.4,71.6,94,29.93,9.0,SSW,4.6,-,N/A,,Clear,200,2013-09-03 03:15:00
10:35 PM,73.4,69.8,88,29.93,10.0,SW,3.5,-,N/A,,Clear,220,2013-09-03 03:35:00
10:55 PM,73.4,69.8,88,29.92,10.0,WSW,3.5,-,N/A,,Clear,250,2013-09-03 03:55:00
11:15 PM,73.4,69.8,88,29.92,10.0,West,3.5,-,N/A,,Mostly Cloudy,270,2013-09-03 04:15:00
11:35 PM,73.4,69.8,88,29.92,10.0,WSW,3.5,-,N/A,,Partly Cloudy,240,2013-09-03 04:35:00
11:55 PM,73.4,69.8,88,29.92,8.0,West,4.6,-,N/A,,Scattered Clouds,270,2013-09-03 04:55:00